CST,Max TemperatureF,Mean TemperatureF,Min TemperatureF,Max Dew PointF,MeanDew PointF,Min DewpointF,Max Humidity, Mean Humidity, Min Humidity, Max Sea Level PressureIn, Mean Sea Level PressureIn, Min Sea Level PressureIn, Max VisibilityMiles, Mean VisibilityMiles, Min VisibilityMiles, Max Wind SpeedMPH, Mean Wind SpeedMPH, Max Gust SpeedMPH,PrecipitationIn, CloudCover, Events, WindDirDegrees
2012-11-1,64,47,30,37,29,16,100,62,17,30.08,30.02,29.99,10,10,10,10,1,,0.00,0,,294
2012-11-2,77,59,41,46,40,34,93,61,22,30.04,30.00,29.97,10,10,10,13,3,,0.00,0,,276
2012-11-3,82,62,41,59,47,41,100,68,26,30.10,30.04,29.96,10,10,2,18,3,33,0.00,1,Rain,249
2012-11-4,60,48,37,59,44,36,100,75,42,30.15,30.11,30.03,10,10,5,12,4,17,0.00,1,,349
2012-11-5,59,46,32,46,38,32,100,76,36,30.14,30.07,30.00,10,10,7,9,1,,0.00,4,Rain,73
2012-11-6,55,48,41,45,44,41,100,86,63,30.06,30.00,29.96,10,8,2,8,2,,0.00,8,Rain,319
2012-11-7,53,44,35,43,40,36,100,82,51,30.16,30.03,29.96,10,10,7,18,6,30,0.00,5,Rain,310
2012-11-8,59,46,32,41,36,32,100,83,44,30.29,30.22,30.16,10,8,0,7,1,,0.00,1,Fog,346
2012-11-9,68,50,32,43,36,32,100,72,28,30.33,30.24,30.19,10,8,3,7,2,,0.00,0,,194
2012-11-10,71,53,35,45,40,34,100,69,31,30.33,30.26,30.21,10,10,10,10,3,17,0.00,0,,186
2012-11-11,69,55,41,50,43,36,81,57,35,30.30,30.22,30.12,10,10,10,21,9,29,0.00,1,,171
2012-11-12,64,48,33,55,44,30,100,83,58,30.45,30.29,30.12,10,9,2,20,11,24,0.00,5,Rain,310
2012-11-13,51,40,30,30,27,23,93,61,33,30.50,30.43,30.36,10,10,10,15,6,21,0.00,0,,21
2012-11-14,55,44,32,37,32,28,100,71,41,30.40,30.34,30.28,10,9,0,12,3,9,0.00,2,,70
2012-11-15,59,44,30,37,32,25,100,75,27,30.35,30.30,30.26,10,10,10,8,1,,0.00,0,,5
2012-11-16,60,46,32,34,30,27,100,64,27,30.38,30.34,30.30,10,10,10,10,2,,0.00,0,,23
2012-11-17,60,45,30,36,32,28,100,74,31,30.46,30.40,30.36,10,10,2,10,1,,0.00,0,,27
2012-11-18,62,46,30,36,32,28,100,71,32,30.44,30.38,30.32,10,10,10,10,1,,0.00,0,,98
2012-11-19,64,48,32,43,38,32,100,78,42,30.36,30.29,30.21,10,10,10,6,0,,0.00,1,,71
2012-11-20,68,54,41,45,40,32,100,66,26,30.22,30.16,30.10,10,10,10,8,1,,0.00,3,,307
2012-11-21,68,52,37,46,41,36,100,78,43,30.23,30.19,30.13,10,10,7,8,1,,0.00,0,,352
2012-11-22,69,50,32,46,37,32,100,74,27,30.27,30.21,30.16,10,8,0,8,1,,0.00,1,Fog,215
2012-11-23,60,48,37,50,38,27,100,70,34,30.26,30.19,30.16,10,10,10,14,5,18,0.00,2,,310
2012-11-24,44,35,26,30,24,19,86,65,37,30.34,30.25,30.18,10,10,10,10,6,,0.00,0,,352
2012-11-25,59,41,23,28,24,18,93,63,20,30.20,30.13,30.06,10,10,10,12,2,,0.00,0,,209
2012-11-26,62,47,32,54,40,27,100,73,45,30.19,30.13,30.10,10,10,5,10,2,,0.00,6,Rain,181
2012-11-27,53,46,37,54,38,32,100,83,70,30.36,30.28,30.11,10,9,4,14,9,17,0.00,8,,16
2012-11-28,51,40,30,32,30,23,100,77,35,30.49,30.42,30.36,10,9,7,9,4,,0.00,3,,19
2012-11-29,60,43,26,34,29,23,100,74,23,30.44,30.36,30.30,10,10,7,9,1,,0.00,0,,194
2012-11-30,62,46,30,43,36,28,100,77,34,30.36,30.30,30.23,10,10,7,10,1,,0.00,1,,203